Location: Buchloe
(48.0161°N, 10.7316°E)
Time: 03:55:12
(UTC+02:00)

ISS - Pass Details

Date: 13 July 2025
Orbit: 413 x 417 km, 51.6° (Epoch: 12 July)

Event Time Altitude Azimuth Distance (km) Brightness Sun altitude
Rises 21:56:00 0° 256° (WSW) 2,345 0.5 -6.3°
Reaches altitude 10° 21:58:05 10° 259° (W) 1,484 -0.4 -6.6°
Maximum altitude 22:01:24 66° 342° (NNW) 457 -3.3 -7.0°
Drops below altitude 10° 22:04:44 10° 66° (ENE) 1,491 -1.2 -7.4°
Sets 22:06:51 0° 69° (ENE) 2,356 -0.2 -7.6°
